Location: Newark
(52.1031°N, 9.3600°E)
Time: 11:31:03
(UTC+00:00)

Envisat - Pass Details

Date: 21 October 2019
Orbit: 764 x 766 km, 98.1° (Epoch: 21 November)

Event Time Altitude Azimuth Distance (km) Brightness Sun altitude
Rises 16:53:53 0° 155° (SSE) 3,224 6.1 -6.4°
Reaches altitude 10° 16:56:11 10° 152° (SSE) 2,302 5.3 -6.8°
Maximum altitude 17:01:13 68° 71° (ENE) 830 3.0 -7.6°
Drops below altitude 10° 17:06:17 10° 350° (N) 2,317 5.5 -8.3°
Sets 17:08:36 0° 348° (NNW) 3,248 6.3 -8.7°
